Flag for Russia Weather past 2 weeks in Yekaterinburg, Russia

Now
50 °F

Partly sunny.


Feels Like: 47 °F
Forecast: 39 / 60 °F
Wind: 8 mph from Northwest

Location: Ekaterinburg

Current Time: Sep 2, 2014 at 11:16:59 AM

Latest Report: Sep 2, 2014 at 10:30 AM


Visibility: N/A

Pressure: 30.24 "Hg

Humidity: 82%

Dew point: 45 °F

Location of YekaterinburgLocation

Historic Weather in Yekaterinburg — Graph

°F

Yekaterinburg temperature yesterday

Maximum temperature yesterday: 57 °F (at 4:00 PM)
Minimum temperature yesterday: 45 °F (at 10:30 PM)
Average temperature yesterday: 51 °F

Past Weeks' High & Low Weather Summary

 TemperatureHumidityPressure
High81 °F (Aug 18, 3:30 PM)100% (Aug 18, 10:30 AM)30.24 "Hg (Aug 18, 10:30 AM)
Low36 °F (Aug 26, 7:00 AM)63% (Sep 1, 4:00 PM)29.47 "Hg (Aug 30, 3:30 AM)
Average59 °F93%29.92 "Hg
* Reported Aug 18 10:00 AM — Sep 2 10:00 AM, Yekaterinburg, Weather by CustomWeather, © 2014

Note: Actual official high and low records may vary slightly from our data, if they occured in-between our weather recording intervals... More about our weather records

Advertising

Yekaterinburg weather history for previous 24 hours

 ConditionsComfort  
Time TempWeatherWind HumidityBarometerVisibility
10:00 AM
Sep 2
50 °FScattered clouds.8 mph88%30.24 "HgN/A
9:30 AM48 °FSunny.10 mph87%30.24 "Hg10 mi
8:30 AM46 °FPartly sunny.6 mph93%30.21 "HgN/A
8:00 AM45 °FPartly sunny.3 mph100%30.21 "HgN/A
7:30 AM45 °FOvercast.6 mph100%30.21 "HgN/A
7:00 AM45 °FOvercast.6 mph93%30.21 "HgN/A
6:30 AM45 °FOvercast.6 mph93%30.21 "HgN/A
6:00 AM45 °FOvercast.6 mph93%30.21 "HgN/A
5:30 AM43 °FOvercast.3 mph100%30.18 "HgN/A
5:00 AM43 °FOvercast.3 mph93%30.18 "HgN/A
4:30 AM41 °FPassing clouds.1 mph100%30.18 "HgN/A
4:00 AM39 °FPassing clouds.1 mph100%30.18 "HgN/A
3:30 AM37 °FPassing clouds.1 mph100%30.18 "HgN/A
2:30 AM39 °FPassing clouds.No wind100%30.15 "HgN/A
2:00 AM39 °FClear.3 mph100%30.15 "Hg10 mi
1:30 AM41 °FClear.6 mph93%30.15 "Hg10 mi
1:00 AM46 °FPassing clouds.8 mph87%30.15 "HgN/A
12:30 AM46 °FPassing clouds.6 mph87%30.15 "HgN/A
12:00 AM46 °FPassing clouds.6 mph87%30.15 "HgN/A
11:30 PM
Sep 1
48 °FPassing clouds.10 mph87%30.15 "HgN/A
11:00 PM46 °FPassing clouds.6 mph93%30.15 "HgN/A
10:30 PM45 °FClear.6 mph93%30.12 "Hg10 mi
10:00 PM48 °FPassing clouds.6 mph82%30.12 "HgN/A
9:30 PM46 °FSunny.6 mph87%30.12 "Hg10 mi
9:00 PM52 °FSunny.8 mph77%30.09 "Hg10 mi
8:30 PM54 °FSunny.8 mph72%30.09 "Hg10 mi
8:00 PM54 °FSunny.8 mph72%30.09 "Hg10 mi
7:30 PM55 °FSunny.10 mph67%30.09 "Hg10 mi
7:00 PM55 °FScattered clouds.10 mph67%30.09 "HgN/A
6:30 PM55 °FScattered clouds.13 mph67%30.09 "HgN/A
6:00 PM57 °FBroken clouds.13 mph63%30.07 "HgN/A
5:30 PM57 °FPartly sunny.13 mph63%30.07 "HgN/A
5:00 PM57 °FPartly sunny.10 mph63%30.07 "HgN/A
4:30 PM57 °FPartly sunny.13 mph63%30.07 "HgN/A
4:00 PM57 °FPartly sunny.10 mph63%30.07 "HgN/A
3:30 PM55 °FPartly sunny.13 mph67%30.07 "HgN/A
3:00 PM55 °FPartly sunny.13 mph72%30.07 "HgN/A
2:30 PM54 °FPartly sunny.13 mph77%30.07 "HgN/A
2:00 PM54 °FPartly sunny.8 mph77%30.04 "HgN/A
1:30 PM54 °FPartly sunny.15 mph77%30.04 "HgN/A
1:00 PM52 °FPartly sunny.10 mph82%30.04 "HgN/A
12:30 PM52 °FPartly sunny.13 mph82%30.04 "HgN/A
12:00 PM50 °FPartly sunny.8 mph88%30.04 "HgN/A
11:30 AM52 °FPartly sunny.10 mph88%30.04 "HgN/A
11:00 AM50 °FPartly sunny.10 mph94%30.01 "HgN/A
Weather by CustomWeather, © 2014

See weather overviewHow to use our weather pages